DL9TPA-1 Weather Reports


time (UTC)temp
F
wind
direction
speed
knots
gust
knots
rain 1hr
in
rain 24hr
in
rain mn
in
humidity
%
barometer
mb
20260507153402 49 0.0 0.0 0.01 1.02 0.89 98 1013.7
20260507152358 49 0.0 0.0 0.01 1.02 0.89 98 1013.6
20260507151355 49 0.0 0.0 0.01 1.02 0.89 97 1013.5
20260507150354 49 0.0 0.0 0.01 1.02 0.89 98 1013.3
20260507145352 50 0.0 0.0 0.01 1.02 0.89 98 1013.3
20260507144351 50 0.0 0.0 0.00 1.01 0.88 98 1013.2
20260507143350 50 0.0 0.0 0.00 1.01 0.88 97 1013.2
20260507142348 51 0.0 0.0 0.00 1.01 0.88 97 1013.1
20260507141346 51 0.0 0.0 0.00 1.01 0.88 97 1013.0
20260507140342 52 0.0 0.0 0.00 1.01 0.88 98 1012.8
20260507135341 52 0.0 0.0 0.00 1.01 0.88 98 1012.7
20260507134339 52 0.0 0.0 0.00 1.01 0.88 98 1012.7
20260507133336 52 0.0 0.0 0.00 1.01 0.88 98 1012.5
20260507132335 53 0.0 0.0 0.00 1.01 0.88 98 1012.5
20260507131333 52 0.0 0.0 0.00 1.01 0.88 98 1012.3
20260507130330 52 0.0 0.0 0.00 1.01 0.88 99 1012.3
20260507125327 52 0.0 0.0 0.00 1.01 0.88 98 1012.2
20260507124329 52 0.0 0.0 0.02 1.01 0.88 98 1012.1
20260507123325 52 0.0 0.0 0.02 1.01 0.88 98 1012.0
20260507122323 52 0.0 0.0 0.02 1.01 0.88 98 1011.8
20260507121319 52 0.0 0.0 0.02 1.01 0.88 98 1011.8
20260507120319 51 0.0 0.0 0.03 1.01 0.88 98 1011.7
20260507115317 52 0.0 0.0 0.04 1.01 0.87 98 1011.6
20260507114315 52 0.0 0.0 0.04 0.99 0.86 98 1011.5
20260507113311 52 0.0 0.0 0.06 0.99 0.86 99 1011.4
20260507112310 52 0.0 0.0 0.07 0.99 0.86 98 1011.3
20260507111310 51 0.0 0.0 0.08 0.99 0.85 98 1011.2
20260507110307 51 0.0 0.0 0.08 0.98 0.85 98 1011.1
20260507105307 51 0.0 0.0 0.08 0.97 0.84 98 1011.1
20260507104302 51 0.0 0.0 0.06 0.95 0.82 98 1010.9
20260507103300 51 0.0 0.0 0.05 0.93 0.80 97 1010.7
20260507102257 52 0.0 0.0 0.04 0.92 0.79 98 1010.5
20260507101255 52 0.0 0.0 0.04 0.91 0.78 98 1010.3
20260507100253 52 0.0 0.0 0.07 0.90 0.77 98 1010.0
20260507095253 52 0.0 0.0 0.06 0.89 0.76 98 1010.0
20260507094251 52 0.0 0.0 0.08 0.89 0.76 98 1009.9
20260507093248 52 0.0 0.0 0.08 0.89 0.76 98 1009.8
20260507092248 52 0.0 0.0 0.08 0.89 0.76 98 1009.7
20260507091245 52 0.0 0.0 0.08 0.87 0.74 97 1009.6
20260507090244 53 0.0 0.0 0.04 0.84 0.70 97 1009.6
20260507085240 53 0.0 0.0 0.03 0.82 0.69 98 1009.3
20260507084238 53 0.0 0.0 0.02 0.81 0.68 98 1009.2
20260507083238 53 0.0 0.0 0.02 0.81 0.68 98 1009.2
20260507082236 53 0.0 0.0 0.01 0.80 0.67 98 1009.1
20260507081233 53 0.0 0.0 0.00 0.79 0.66 98 1009.0
20260507080229 53 0.0 0.0 0.00 0.79 0.66 98 1008.9
20260507075230 54 0.0 0.0 0.00 0.79 0.66 98 1008.8
20260507074225 54 0.0 0.0 0.00 0.79 0.66 98 1008.8
20260507073226 53 0.0 0.0 0.00 0.79 0.66 98 1008.7
20260507072223 53 0.0 0.0 0.00 0.79 0.66 98 1008.6
20260507071219 52 0.0 0.0 0.01 0.79 0.66 98 1008.6
20260507070217 52 0.0 0.0 0.01 0.79 0.66 98 1008.5
20260507065215 52 0.0 0.0 0.00 0.79 0.66 98 1008.5
20260507064216 52 0.0 0.0 0.01 0.79 0.66 98 1008.4
20260507063211 52 0.0 0.0 0.03 0.79 0.66 98 1008.3
20260507062211 52 0.0 0.0 0.06 0.79 0.66 98 1008.1
20260507061211 52 0.0 0.0 0.06 0.78 0.65 98 1008.0
20260507060205 52 0.0 0.0 0.07 0.78 0.65 98 1007.9
20260507055205 51 0.0 0.0 0.08 0.78 0.65 98 1007.9
20260507054203 51 0.0 0.0 0.08 0.78 0.65 98 1007.8
20260507053201 51 0.0 0.0 0.06 0.76 0.63 98 1007.7
20260507052159 51 0.0 0.0 0.04 0.73 0.60 98 1007.6
20260507051157 51 0.0 0.0 0.03 0.72 0.59 98 1007.5
20260507050155 51 0.0 0.0 0.03 0.71 0.58 98 1007.4
20260507045152 51 0.0 0.0 0.04 0.71 0.58 98 1007.3
20260507044150 51 0.0 0.0 0.05 0.70 0.57 98 1007.2
20260507043149 51 0.0 0.0 0.08 0.70 0.57 98 1007.1
20260507042146 51 0.0 0.0 0.10 0.70 0.56 98 1007.0
20260507041144 51 0.0 0.0 0.13 0.69 0.56 98 1007.0
20260507040142 51 0.0 0.0 0.15 0.68 0.55 98 1007.0
20260507035140 51 0.0 0.0 0.15 0.67 0.54 98 1007.0
20260507034139 51 0.0 0.0 0.13 0.65 0.52 98 1007.0
20260507033135 51 0.0 0.0 0.13 0.62 0.49 98 1007.0
20260507032136 51 0.0 0.0 0.13 0.60 0.47 98 1006.8
20260507031131 51 0.0 0.0 0.12 0.56 0.43 98 1006.8
20260507030130 51 0.0 0.0 0.11 0.54 0.41 98 1006.7
20260507025131 51 0.0 0.0 0.13 0.52 0.39 98 1006.7
20260507024127 51 0.0 0.0 0.12 0.52 0.39 98 1006.7
20260507023125 51 0.0 0.0 0.12 0.49 0.36 98 1006.7
20260507022123 51 0.0 0.0 0.12 0.47 0.34 98 1006.7
20260507021121 51 0.0 0.0 0.11 0.45 0.32 98 1006.7
20260507020118 51 0.0 0.0 0.11 0.43 0.30 98 1006.6
20260507015116 52 0.0 0.0 0.10 0.40 0.27 98 1006.6
20260507014114 52 0.0 0.0 0.13 0.40 0.27 98 1006.6
20260507013114 52 0.0 0.0 0.13 0.37 0.24 98 1006.5
20260507012112 52 0.0 0.0 0.16 0.35 0.22 97 1006.4
20260507011109 52 0.0 0.0 0.17 0.34 0.21 97 1006.4
20260507010107 52 0.0 0.0 0.17 0.32 0.19 97 1006.4
20260507005105 52 0.0 0.0 0.14 0.29 0.16 97 1006.5
20260507004105 52 0.0 0.0 0.12 0.27 0.14 97 1006.6
20260507003102 52 0.0 0.0 0.11 0.24 0.11 97 1006.6
20260507002059 52 0.0 0.0 0.06 0.19 0.06 97 1006.5
20260507001057 52 0.0 0.0 0.03 0.16 0.03 97 1006.4
20260507000055 52 0.0 0.0 0.02 0.15 0.02 97 1006.2
20260506235054 52 0.0 0.0 0.02 0.15 0.02 97 1006.1
20260506234050 52 0.0 0.0 0.01 0.14 0.01 97 1006.0
20260506233049 52 0.0 0.0 0.00 0.13 0.00 97 1005.8
20260506232047 51 0.0 0.0 0.00 0.13 0.00 97 1005.7
20260506231044 52 0.0 0.0 0.00 0.13 0.00 97 1005.7
20260506230043 52 0.0 0.0 0.00 0.13 0.00 97 1005.7
20260506225041 52 0.0 0.0 0.00 0.13 0.00 96 1005.7
20260506224040 52 0.0 0.0 0.00 0.13 0.00 96 1005.7
20260506223036 52 0.0 0.0 0.00 0.14 0.00 96 1005.8
20260506222033 52 0.0 0.0 0.00 0.14 0.00 96 1005.8
20260506221032 52 0.0 0.0 0.00 0.16 0.00 96 1005.8
20260506220030 52 0.0 0.0 0.00 0.17 0.00 95 1006.0
20260506215027 52 0.0 0.0 0.12 0.21 0.17 95 1005.9
20260506214025 53 0.0 0.0 0.12 0.28 0.17 94 1005.9
20260506213024 53 0.0 0.0 0.13 0.29 0.17 93 1005.7
20260506212023 54 0.0 0.0 0.13 0.29 0.17 91 1005.5
20260506211022 55 0.0 0.0 0.13 0.29 0.17 89 1005.6
20260506210022 56 0.0 0.0 0.13 0.29 0.17 90 1005.6
20260506205019 58 0.0 0.0 0.01 0.17 0.06 86 1005.8
20260506204017 58 0.0 0.0 0.01 0.17 0.06 86 1005.8
20260506203013 58 0.0 0.0 0.00 0.16 0.04 86 1005.7
20260506202011 57 0.0 0.0 0.00 0.25 0.04 86 1005.4
20260506201007 58 0.0 0.0 0.00 0.28 0.04 86 1005.0
20260506200007 58 0.0 0.0 0.00 0.31 0.04 85 1004.8
20260506195005 58 0.0 0.0 0.00 0.32 0.04 84 1004.7
20260506193501 59 0.0 0.0 0.00 0.32 0.04 83 1004.6
20260506192459 60 0.0 0.0 0.00 0.32 0.04 82 1004.5
20260506191457 60 0.0 0.0 0.00 0.32 0.04 82 1004.2
20260506190455 61 0.0 0.0 0.00 0.32 0.04 80 1004.0
20260506185454 62 0.0 0.0 0.00 0.32 0.04 79 1003.9
20260506184453 64 0.0 0.0 0.00 0.33 0.04 75 1003.9
20260506183451 64 0.0 0.0 0.00 0.35 0.04 75 1003.9
20260506182449 65 0.0 0.0 0.00 0.36 0.04 68 1003.8
20260506181447 65 0.0 0.0 0.00 0.39 0.04 59 1003.5
20260506180443 66 0.0 0.0 0.00 0.40 0.04 58 1003.5
20260506175442 66 0.0 0.0 0.00 0.40 0.04 59 1003.5
20260506174440 66 0.0 0.0 0.00 0.40 0.04 58 1003.5
20260506173438 67 0.0 0.0 0.00 0.40 0.04 58 1003.4
20260506172436 67 0.0 0.0 0.00 0.40 0.04 58 1003.3
20260506171433 67 0.0 0.0 0.00 0.41 0.04 57 1003.3
20260506170430 67 0.0 0.0 0.00 0.41 0.04 57 1003.3
20260506165430 67 0.0 0.0 0.00 0.41 0.04 57 1003.2
20260506164428 67 0.0 0.0 0.00 0.41 0.04 57 1003.3
20260506163427 67 0.0 0.0 0.00 0.41 0.04 56 1003.3
20260506162424 67 0.0 0.0 0.00 0.41 0.04 55 1003.3
20260506161421 67 0.0 0.0 0.00 0.41 0.04 54 1003.5
20260506160419 68 0.0 0.0 0.00 0.41 0.04 53 1003.7
20260506155418 69 0.0 0.0 0.00 0.41 0.04 53 1003.8
20260506154415 70 0.0 0.0 0.00 0.41 0.04 53 1003.9